Location: Brompton
(51.4000°N, 0.5333°E)
Time: 05:31:40
(UTC+00:00)

USA 215 - Pass Details

Date: 30 September 2021
Orbit: 1093 x 1114 km, 123.0° (Epoch: 14 October)

Event Time Altitude Azimuth Distance (km) Brightness Sun altitude
Exits shadow 19:01:35 19° 107° (ESE) 2,374 4.4 -13.9°
Maximum altitude 19:06:34 78° 23° (NNE) 1,128 3.3 -14.6°
Drops below altitude 10° 19:13:07 10° 299° (WNW) 2,971 6.8 -15.6°
Sets 19:15:37 0° 298° (WNW) 3,934 7.8 -16.0°
